Content
SEND FEEDBACK

Daily
Averages
Monthly
Summary
United States of America

VINTON, LOUISIANA


Home > North America > United States > Louisiana
Elevation: 20 feet     Latitude: 30 12N     Longitude: 093 35W

WEATHER
 
SELECT A DAY
Number of Records: 188,257;   Date Range: 11/22/06 - 9/20/14
 
SHARE

PRINT THIS DATA

[ ← Previous Day ]
WEATHER ALMANAC - OCTOBER 8, 2013
[ Next Day → ]
[ °C ]   °F
We're sorry. There is no daily almanac available for Vinton, Louisiana on October 8, 2013.
WEATHER BY HOUR - OCTOBER 8, 2013
[ °C ]   °F
Local TimeTemperatureDewpointHumidityBarometerVisibilityWind DirectionWind SpeedGust SpeedPrecipitationEventsConditions
12:35 AM57.2 °F55.9 °F96 %30.07 in10.0 miNorth (360°)4.6 mphClear
12:55 AM56.8 °F55.9 °F97 %30.06 in10.0 miCalmClear
1:15 AM56.7 °F55.6 °F96 %30.06 in10.0 miNorth (10°)3.5 mphClear
1:35 AM57.0 °F55.6 °F95 %30.06 in10.0 miNorth (10°)3.5 mphClear
1:55 AM57.4 °F54.5 °F90 %30.06 in10.0 miCalmClear
2:15 AM55.8 °F53.2 °F91 %30.06 in10.0 miNorth (350°)3.5 mphClear
2:35 AM55.0 °F53.2 °F94 %30.06 in10.0 miNorth (350°)3.5 mphClear
2:55 AM58.8 °F52.9 °F81 %30.06 in10.0 miNorth (10°)3.5 mphClear
3:15 AM59.4 °F52.7 °F79 %30.06 in10.0 miNNE (20°)3.5 mphClear
3:35 AM56.7 °F52.5 °F86 %30.06 in10.0 miCalmClear
3:55 AM56.5 °F52.3 °F86 %30.06 in10.0 miCalmClear
4:15 AM58.5 °F53.2 °F83 %30.06 in10.0 miCalmClear
4:35 AM55.8 °F52.2 °F88 %30.06 in10.0 miCalmClear
4:55 AM54.0 °F52.5 °F95 %30.06 in10.0 miNNE (20°)3.5 mphClear
5:15 AM53.2 °F52.3 °F97 %30.06 in10.0 miCalmClear
5:35 AM53.8 °F52.9 °F97 %30.06 in10.0 miCalmClear
5:55 AM53.6 °F52.2 °F95 %30.07 in10.0 miNNW (330°)3.5 mphClear
6:15 AM52.7 °F52.0 °F97 %30.07 in10.0 miNNW (330°)3.5 mphClear
6:35 AM52.9 °F52.3 °F98 %30.07 in7.0 miNNW (330°)4.6 mphClear
6:55 AM53.2 °F52.7 °F98 %30.08 in7.0 miNNW (340°)4.6 mphClear
7:15 AM53.8 °F53.2 °F98 %30.08 in7.0 miNorth (360°)3.5 mphClear
7:35 AM55.6 °F54.5 °F96 %30.09 in10.0 miNorth (10°)4.6 mphClear
7:55 AM57.6 °F55.8 °F94 %30.09 in10.0 miNorth (360°)4.6 mphClear
8:15 AM60.1 °F56.8 °F89 %30.09 in10.0 miNNE (20°)3.5 mphClear
8:35 AM61.7 °F57.6 °F86 %30.09 in10.0 miCalmClear
8:55 AM63.5 °F58.6 °F84 %30.10 in10.0 miCalmClear
9:15 AM66.4 °F57.4 °F73 %30.11 in10.0 miNE (50°)5.8 mphClear
9:35 AM67.3 °F55.8 °F66 %30.11 in10.0 miNE (50°)6.9 mphClear
9:55 AM68.0 °F55.0 °F63 %30.11 in10.0 miNE (50°)6.9 mphClear
10:55 AM71.4 °F54.9 °F56 %30.11 in7.0 miNE (40°)3.5 mphClear
11:15 AM72.5 °F55.6 °F55 %30.11 in10.0 miENE (60°)6.9 mphClear
11:35 AM72.5 °F54.0 °F52 %30.10 in10.0 miNE (50°)5.8 mphClear
11:55 AM73.2 °F53.2 °F49 %30.10 in10.0 miEast (80°)3.5 mphClear
12:15 PM73.8 °F53.8 °F50 %30.10 in10.0 miCalmClear
12:35 PM73.8 °F53.6 °F49 %30.09 in10.0 miCalmClear
12:55 PM75.0 °F54.1 °F48 %30.08 in10.0 miCalmClear
1:15 PM75.7 °F55.2 °F49 %30.07 in10.0 miCalmClear
1:35 PM75.6 °F54.3 °F48 %30.06 in10.0 miCalmClear
1:55 PM76.5 °F54.5 °F46 %30.05 in10.0 miCalmClear
2:15 PM77.4 °F53.8 °F44 %30.04 in10.0 miNorth (350°)4.6 mphClear
2:35 PM77.4 °F52.0 °F41 %30.04 in10.0 miNE (40°)5.8 mphClear
2:55 PM78.3 °F54.1 °F43 %30.03 in10.0 miNNE (20°)3.5 mphClear
3:15 PM78.4 °F54.0 °F43 %30.02 in10.0 miNW (320°)8.1 mphClear
3:35 PM78.1 °F52.3 °F41 %30.02 in10.0 miNW (310°)3.5 mphClear
3:55 PM78.3 °F53.6 °F42 %30.02 in10.0 miCalmClear
4:15 PM78.3 °F54.3 °F43 %30.01 in10.0 miWNW (300°)8.1 mphClear
4:35 PM78.8 °F54.3 °F43 %30.01 in10.0 miWNW (300°)4.6 mphClear
4:55 PM78.1 °F54.3 °F44 %30.01 in10.0 miWNW (290°)3.5 mphClear
5:15 PM77.9 °F54.5 °F44 %30.01 in10.0 miNNW (330°)5.8 mphClear
5:35 PM77.5 °F55.4 °F46 %30.01 in10.0 miNNW (340°)5.8 mphClear
5:55 PM76.5 °F54.9 °F47 %30.01 in10.0 miNW (320°)4.6 mphClear
6:15 PM75.2 °F56.1 °F51 %30.02 in10.0 miNNW (330°)3.5 mphClear
6:35 PM73.4 °F57.4 °F57 %30.02 in10.0 miNW (320°)3.5 mphClear
6:55 PM71.2 °F57.7 °F62 %30.02 in10.0 miCalmClear
7:15 PM69.1 °F58.3 °F68 %30.03 in10.0 miCalmClear
7:35 PM66.2 °F60.1 °F81 %30.03 in10.0 miCalmClear
7:55 PM66.4 °F58.6 °F76 %30.03 in10.0 miCalmClear
8:15 PM66.4 °F58.1 °F75 %30.03 in10.0 miCalmClear
8:35 PM63.7 °F58.8 °F84 %30.04 in10.0 miNW (320°)4.6 mphClear
8:55 PM63.3 °F58.8 °F85 %30.04 in10.0 miCalmClear
9:15 PM64.4 °F58.5 °F81 %30.04 in10.0 miCalmClear
9:35 PM62.8 °F58.6 °F86 %30.05 in10.0 miCalmClear
9:55 PM62.4 °F59.7 °F91 %30.05 in10.0 miCalmClear
10:15 PM61.9 °F59.7 °F93 %30.05 in10.0 miCalmClear
10:35 PM64.0 °F58.5 °F82 %30.05 in10.0 miNNE (20°)4.6 mphClear
10:55 PM64.6 °F58.1 °F79 %30.05 in10.0 miNNE (20°)3.5 mphClear
11:15 PM59.7 °F56.7 °F90 %30.05 in10.0 miCalmClear
11:35 PM60.4 °F58.3 °F93 %30.04 in10.0 miCalmClear
11:55 PM60.6 °F58.1 °F91 %30.04 in10.0 miCalmClear
Hourly data recorded from KUXL, located miles away from Vinton, Louisiana







STORIES FROM OUR PARTNERS